User: anonymous   Login
Location: Drummondville
(45.8830°N, 72.4830°W)
Time: 12:35:05
(UTC-04:00)
Language:

OTV 5 (USA 277) - Orbit

View from above orbital plane
View from above orbital plane
View from above satellite
View from above satellite

Ground track
Ground track

The orbit data is extracted from the following two-line orbital elements,

1 42932U 17052A   18186.82623654 0.00000000  00000-0  00000-0 0    08
2 42932  54.5115  87.7273 0006291  66.5189 293.4810 15.84807121    04
Epoch (UTC): 05 July 2018 19:49:46
Eccentricity: 0.0006291
inclination: 54.5115°
perigee height: 312 km
apogee height: 321 km
right ascension of ascending node: 87.7273°
argument of perigee: 66.5189°
revolutions per day: 15.84807121
mean anomaly at epoch: 293.4810°
orbit number at epoch: 0

The dashed part of the orbit path shows where the satellite is in the earth's shadow,  

DLR